Location: Crescent
(42.8242°N, 73.7329°W)
Time: 03:10:19
(UTC+00:00)

Tiros 1 - Pass Details

Date: 20 February 2026
Orbit: 618 x 649 km, 48.4° (Epoch: 13 March)

Event Time Altitude Azimuth Distance (km) Brightness Sun altitude
Rises 13:54:42 0° 260° (W) 2,912 10.1 20.5°
Reaches altitude 10° 13:57:04 10° 264° (W) 2,001 9.3 20.9°
Maximum altitude 14:01:35 55° 343° (NNW) 749 7.5 21.5°
Drops below altitude 10° 14:06:05 10° 62° (ENE) 1,988 10.0 22.1°
Sets 14:08:26 0° 67° (ENE) 2,893 10.8 22.5°
